Flag for Norfolk Island Weather past 2 weeks in Kingston, Norfolk Island

Now
57 °F

Passing clouds.


Feels Like: 55 °F
Forecast: 55 / 63 °F
Wind: 8 mph from Northeast

Location: Norfolk Island Airport

Current Time: Aug 1, 2015 at 1:26:42 AM

Latest Report: Aug 1, 2015 at 1:00 AM


Visibility: N/A

Pressure: 30.21 "Hg

Humidity: 88%

Dew point: 54 °F

Location of KingstonLocation

Historic Weather in Kingston — Graph

°F

Kingston temperature yesterday

Maximum temperature yesterday: 64 °F (at 11:00 AM)
Minimum temperature yesterday: 54 °F (at 5:30 AM)
Average temperature yesterday: 59 °F

Past Weeks' High & Low Weather Summary

 TemperatureHumidityPressure
High68 °F (Jul 27, 11:30 AM)100% (Jul 17, 9:30 PM)30.51 "Hg (Jul 17, 9:30 PM)
Low54 °F (Jul 20, 6:00 AM)39% (Jul 19, 11:00 AM)29.83 "Hg (Jul 18, 12:00 AM)
Average61 °F71%30.22 "Hg
* Reported Jul 16 11:30 PM — Midnight between Jul 31 and Aug 1, Kingston, Weather by CustomWeather, © 2015

Note: Actual official high and low records may vary slightly from our data, if they occured in-between our weather recording intervals... More about our weather records

Advertising

Kingston weather history for previous 24 hours

 ConditionsComfort  
Time TempWeatherWind HumidityBarometerVisibility
12:00 AM
Sat, Aug 1
57 °FPassing clouds.2 mph77%30.24 "HgN/A
11:30 PM
Fri, Jul 31
57 °FClear.5 mph77%30.24 "HgN/A
11:00 PM59 °FPassing clouds.8 mph68%30.21 "HgN/A
10:30 PM57 °FMostly cloudy.7 mph77%30.24 "HgN/A
10:00 PM57 °FMostly cloudy.8 mph77%30.24 "HgN/A
9:30 PM57 °FOvercast.7 mph88%30.24 "HgN/A
9:00 PM57 °FMostly cloudy.9 mph88%30.24 "HgN/A
8:30 PM59 °FOvercast.13 mph82%30.24 "HgN/A
8:00 PM59 °FOvercast.No wind72%30.24 "HgN/A
7:30 PM59 °FOvercast.6 mph77%30.21 "HgN/A
7:00 PM57 °FPassing clouds.8 mph82%30.21 "HgN/A
6:30 PM57 °FPassing clouds.12 mph88%30.21 "HgN/A
6:00 PM57 °FPassing clouds.8 mph82%30.21 "HgN/A
5:30 PM59 °FPassing clouds.15 mph77%30.18 "HgN/A
5:00 PM61 °FPassing clouds.13 mph72%30.18 "HgN/A
4:30 PM63 °FPassing clouds.12 mph59%30.18 "HgN/A
4:00 PM61 °FScattered clouds.10 mph68%30.18 "HgN/A
3:30 PM61 °FScattered showers. Scattered clouds.16 mph72%30.18 "HgN/A
3:00 PM64 °FScattered clouds.16 mph64%30.21 "HgN/A
2:30 PM63 °FPassing clouds.12 mph64%30.21 "HgN/A
2:00 PM64 °FPassing clouds.14 mph60%30.21 "HgN/A
1:30 PM64 °FPassing clouds.15 mph56%30.21 "HgN/A
1:00 PM64 °FPassing clouds.16 mph56%30.21 "HgN/A
12:30 PM64 °FScattered clouds.17 mph64%30.24 "HgN/A
12:00 PM64 °FScattered clouds.15 mph52%30.24 "HgN/A
11:30 AM64 °FPassing clouds.12 mph56%30.24 "HgN/A
11:00 AM64 °FScattered clouds.8 mph56%30.27 "HgN/A
10:30 AM63 °FPartly sunny.8 mph59%30.27 "HgN/A
10:00 AM61 °FPartly sunny.13 mph59%30.27 "HgN/A
9:30 AM61 °FPassing clouds.17 mph63%30.27 "HgN/A
9:00 AM61 °FPassing clouds.9 mph68%30.27 "HgN/A
8:30 AM61 °FPartly sunny.8 mph63%30.27 "HgN/A
8:00 AM57 °FBroken clouds.5 mph82%30.27 "HgN/A
7:30 AM55 °FBroken clouds.5 mph88%30.27 "HgN/A
7:00 AM55 °FScattered clouds.6 mph88%30.27 "HgN/A
6:30 AM55 °FOvercast.6 mph88%30.24 "HgN/A
6:00 AM55 °FPartly cloudy.10 mph82%30.24 "HgN/A
5:30 AM54 °FClear.6 mph82%30.24 "HgN/A
5:00 AM55 °FPassing clouds.9 mph82%30.24 "HgN/A
4:30 AM57 °FPassing clouds.10 mph67%30.24 "HgN/A
4:00 AM57 °FPassing clouds.9 mph67%30.24 "HgN/A
3:30 AM57 °FPassing clouds.6 mph72%30.24 "HgN/A
3:00 AM57 °FPartly cloudy.9 mph77%30.24 "HgN/A
2:30 AM57 °FPassing clouds.8 mph67%30.24 "HgN/A
2:00 AM57 °FClear.10 mph67%30.27 "HgN/A
1:30 AM59 °FPartly cloudy.9 mph68%30.27 "HgN/A
1:00 AM57 °FPassing clouds.7 mph72%30.27 "HgN/A
Weather by CustomWeather, © 2015

See weather overviewHow to use our weather pages